Location: Unspecified
(51.0459°N, 0.0000°E)
Time: 04:49:58
(UTC+00:00)

ISS - Pass Details

Date: 01 June 2019
Orbit: 408 x 418 km, 51.6° (Epoch: 19 June)

Event Time Altitude Azimuth Distance (km) Brightness Sun altitude
Rises 22:01:40 0° 279° (W) 2,358 0.6 -12.5°
Reaches altitude 10° 22:04:43 10° 248° (WSW) 1,493 -0.9 -12.7°
Maximum altitude 22:06:11 12° 222° (SW) 1,354 -1.4 -12.8°
Enters shadow 22:07:05 11° 206° (SSW) 1,407 -1.5 -12.9°
